RH
20 21 22 23 24 24 25 27 29 30 33 35 41 47 50 51 52 54 56 54 61 65 62 59 56 53 58 60 64 53 32 30 35 40 35 38 40 53 64 68 70 70 65 56 54
19 21 22 23 24 25 28 29 30 33 36 40 45 49 54 55 57 58 58 58 55 64 66 68 64 62 71 76 76 66 42 33 38 44 41 35 41 52 64 70 71 76 71 61 57
19 20 22 23 24 25 28 29 31 35 38 41 47 53 56 58 62 64 66 65 60 62 72 74 68 72 76 82 92 77 58 44 40 45 39 38 43 47 60 71 68 74 76 66 63
18 20 21 22 24 25 27 28 31 34 38 41 49 56 62 66 71 73 68 69 68 60 76 78 79 83 86 85 92 90 71 54 46 38 34 33 41 44 58 69 71 70 75 73 67
19 19 20 21 24 25 26 27 30 34 38 41 47 54 62 72 74 74 71 69 67 64 73 81 85 84 87 90 91 89 85 69 51 44 36 27 30 39 46 64 74 71 73 74 74
20 21 19 20 22 25 26 27 30 33 37 40 44 52 59 69 70 74 75 71 67 69 76 83 86 86 88 91 90 87 85 81 63 50 42 32 27 29 35 61 74 76 76 78 76
22 22 20 19 21 23 26 27 28 31 34 40 43 49 60 65 65 74 79 76 68 71 77 85 85 88 94 90 91 88 93 88 68 52 47 37 30 26 30 55 71 80 80 84 79
25 23 21 20 19 21 24 26 27 29 32 38 41 45 54 58 64 73 73 73 67 68 74 80 87 93 91 88 94 89 85 86 70 54 44 42 33 29 24 38 67 81 83 81 81
25 25 23 21 20 20 21 24 26 27 30 36 39 42 49 55 64 70 71 74 71 66 72 77 77 85 92 88 94 93 85 76 72 59 45 43 40 37 27 36 59 75 80 85 85
24 25 24 23 22 21 21 22 24 26 29 33 37 39 46 52 58 69 71 75 75 75 74 73 76 71 76 86 86 95 83 79 71 60 48 46 41 39 36 35 48 74 82 83 88
27 27 24 25 23 21 21 21 23 26 27 30 34 36 41 49 55 60 70 75 77 81 85 80 76 74 69 79 82 84 89 80 71 60 52 41 41 43 41 37 47 74 88 88 94
25 30 26 25 25 24 22 21 22 25 27 27 32 35 38 44 51 54 61 68 72 74 81 78 79 71 72 77 82 82 88 79 70 62 52 46 38 41 44 43 50 66 87 89 91
21 26 31 27 26 26 26 24 23 25 28 27 28 34 37 41 46 50 54 59 63 69 74 81 81 73 76 77 79 78 93 79 69 61 50 44 38 42 47 47 55 66 77 86 84
19 22 26 31 29 27 28 27 26 27 30 26 28 31 37 39 43 47 51 54 58 58 65 71 79 81 78 74 77 80 77 75 71 63 51 44 47 42 47 53 53 60 66 78 79
17 22 24 25 32 31 29 31 29 28 50 23 27 29 33 38 39 42 48 52 53 52 56 61 67 76 83 78 82 76 67 64 68 65 55 49 56 42 45 55 52 62 66 69 81
17 19 23 26 27 33 34 32 33 37 43 29 26 30 30 33 38 40 42 48 50 53 55 58 62 66 69 77 81 73 66 63 59 75 67 49 43 53 43 42 55 64 74 76 75
15 15 21 26 27 30 32 38 43 44 27 29 28 29 30 32 34 38 41 43 48 55 49 53 63 61 66 73 69 68 75 80 74 83 68 52 51 54 46 39 48 56 62 72 79
19 17 14 22 28 30 35 37 44 31 30 30 32 30 28 29 31 33 36 38 44 46 47 49 54 51 57 63 67 66 71 73 72 64 62 56 54 45 47 47 44 50 51 59 69
20 19 18 18 23 29 37 44 34 34 34 34 32 31 29 27 28 30 32 33 39 45 45 45 42 45 54 57 60 65 65 65 68 60 56 58 47 41 47 48 45 41 46 56 61
16 15 16 20 20 23 33 40 36 36 38 38 33 33 31 29 29 26 26 30 32 39 45 44 45 44 52 55 57 57 60 64 58 66 58 50 47 51 55 53 47 44 42 47 56
14 15 16 18 17 21 30 32 35 38 39 40 38 35 32 31 33 32 28 26 30 34 36 40 46 42 48 48 47 54 54 54 53 51 52 45 46 42 41 53 55 47 42 45 51
16 18 19 19 21 22 22 22 29 37 41 41 42 41 37 34 34 33 32 33 34 32 33 33 40 43 38 44 47 48 47 43 45 43 41 42 45 38 38 44 52 55 47 42 48
26 19 18 22 27 26 22 20 21 32 40 42 42 43 44 41 39 38 35 35 38 37 35 33 33 35 30 35 38 39 40 42 41 38 36 36 40 37 37 39 45 51 53 47 46
37 33 26 26 25 24 26 24 24 27 33 38 42 43 46 48 46 42 40 38 41 39 41 41 37 34 31 30 34 34 34 34 34 36 29 27 30 33 35 37 41 44 42 44 48
60 46 37 31 31 29 26 26 24 22 24 32 40 46 44 45 49 50 46 43 44 43 42 41 41 42 38 39 39 40 36 34 32 28 27 24 27 30 35 38 41 41 44 46 48
70 62 53 44 41 34 32 27 27 24 23 25 32 37 46 46 44 44 49 50 45 48 47 45 43 43 40 41 43 45 42 39 35 34 33 31 29 29 34 37 39 40 41 40 40
47 61 69 57 40 39 40 32 26 29 29 23 23 33 40 47 46 48 49 51 51 53 51 50 50 49 44 44 43 40 39 42 39 37 36 35 30 33 36 36 36 37 38 38 39